Regional Weather Roundup
Issued by NWS Charleston, SC

Current Version | Previous Version | Graphics & Text | Print | Product List | Glossary On
Versions: 1 2 3 4 5 6 7 8 9 10 11 12 13 14 15 16 17 18 19 20 21 22 23 24 25 26 27 28 29 30 31 32 33 34 35 36 37 38 39 40 41 42 43 44 45 46 47 48 49 50
000 ASUS42 KCHS 262212 RWRCHS REGIONAL WEATHER ROUNDUP NATIONAL WEATHER SERVICE CHARLESTON SC 600 PM EDT SUN MAR 26 2017 NOTE: "FAIR" INDICATES FEW OR NO CLOUDS BELOW 12,000 FEET WITH NO SIGNIFICANT WEATHER AND/OR OBSTRUCTIONS TO VISIBILITY. NOT ALL STATIONS ARE QUALITY CONTROLLED. USE DATA WITH CAUTION... ESPECIALLY DEWPOINT OBSERVATIONS. SCZ027-030-031-034>040-042>050-262300- ...SOUTHEAST SOUTH CAROLINA... CITY SKY/WX TMP DP RH WIND PRES REMARKS N CHARLESTON MOSUNNY 75 55 49 S15 30.14S WATERFRONT PRK N/A 71 61 70 SE9 30.12F JOHNS ISLAND FAIR 73 61 64 S8G14 30.15S PINOPOLIS N/A 75 55 50 SE7 30.05F MONCKS CORNER FAIR 75 52 43 S8 30.13S SUMMERVILLE FAIR 75 54 46 S12 30.13S BEAUFORT MCAS PTSUNNY 73 61 65 S8 30.14S BEAUFORT ARPT FAIR 72 59 64 S8 30.14S HILTON HEAD IS MOSUNNY 72 61 68 SE7 30.15F WALTERBORO CLOUDY 73 54 49 S12 30.14S ALLENDALE FAIR 73 61 64 SE8 30.11S ...SOUTHERN MIDLANDS AND PEE DEE... CITY SKY/WX TMP DP RH WIND PRES REMARKS GEORGETOWN FAIR 72 55 56 E12 30.16F KINGSTREE FAIR 75 50 41 SE8 30.11S ORANGEBURG CLOUDY 71 59 65 S7 30.12S BARNWELL FAIR 77 61 57 S10 30.10S AIKEN MOCLDY 77 55 47 SE10 30.11F MANNING CLOUDY 73 52 46 S8 30.11S COLUMBIA MOSUNNY 78 56 46 S14 30.08F SUMTER CLOUDY 75 53 45 S7 30.09S FLORENCE MOSUNNY 77 54 44 SE17 30.11F MYRTLE BEACH MOSUNNY 70 57 64 MISG 30.17F N MYRTLE BEACH SUNNY 70 55 59 S12 30.17S $$ GAZ063-065-086>088-099>101-113>116-118-119-134>141-150-262300- ...SOUTHEAST GEORGIA... CITY SKY/WX TMP DP RH WIND PRES REMARKS SAVANNAH ARPT PTSUNNY 73 57 57 S16 30.12F HUNTER AAF PTSUNNY 72 62 71 SE8 30.11S FORT STEWART SUNNY 76 59 54 SE9 30.09S STATESBORO MOSUNNY 78 60 54 SE6 30.09F SYLVANIA PTCLDY N/A N/A N/A SE6 30.11S CLAXTON FAIR 77 61 56 E8 30.09F ...CSRA...CENTRAL AND FAR SOUTHEAST GEORGIA... CITY SKY/WX TMP DP RH WIND PRES REMARKS THOMSON SUNNY 78 56 47 SW9 30.11F AUGUSTA-BUSH PTSUNNY 80 56 43 SE8 30.06F AUGUSTA-DANIEL MOSUNNY 78 53 41 SE9 30.07F SWAINSBORO FAIR 79 55 44 S10 30.08F VIDALIA PTSUNNY 82 55 39 SE10 30.07F EASTMAN MOCLDY 81 39 22 SW5 30.08F HAZLEHURST FAIR 82 57 43 SE7 30.06F ALMA MOSUNNY 81 54 39 VRB5 30.07F WAYCROSS PTSUNNY 84 58 40 S8 30.07S JESUP FAIR 79 54 41 SE10 30.09F BAXLEY FAIR 81 59 47 SE5 30.07F BRUNSWICK SUNNY 73 63 68 E12 30.12F SAINT SIMONS SUNNY 71 61 70 SE12 30.11F $$ SCZ027-028-034-036>038-045-046-048>050-GAZ119-141-262300- ...LAKE AND SUPPLEMENTAL COASTAL OBSERVATIONS... STATION/POSITION TIME TEMP WIND PRES WAVE SWELL AIR SEA DIR/SP/G HT/PER HT/PER/DIR (UTC) (F) (DEG/KT/KT) (MB) (FT/S) (FT/S/D) WINYAH BAY 2045 70 130/ 10 1021.0 LAKE MURRAY 2120 72 140/ 6/ 8 1018.6F ACE BASIN NERRS 2045 75 130/ 5 1021.0 FORT PULASKI 2142 72 63 160/ 8/ 10 1020.5F SAPELO ISLAND 2100 75 120/ 9 1020.0 $$ ANZ835-935-AMZ111-154-330-350-352-354-370-450-454-472-262300- ...C-MAN AND BUOY OBSERVATIONS... STATION/POSITION TIME TEMP WIND PRES WAVE SWELL AIR SEA DIR/SP/G HT/PER HT/PER/DIR (UTC) (F) (DEG/KT/KT) (MB) (FT/S) (FT/S/D) BUOY 41004 2150 73 74 140/ 8/ 10 1020.8F 4/ 9 3/140/ 9 BUOY 41008 2150 66 64 130/ 12/ 14 1019.7F 4/ 9 3/140/ 9 FOLLY BEACH CMAN 2200 67 150/ 8/ 8 1021.6F CAPERS NEARSHORE NOT AVBL FRIPP NEARSHORE 2108 66 64 140/ 6/ 8 1020.5F STATION/POSITION TIME TEMP WIND PRES WAVE SWELL AIR SEA DIR/SP/G HT/PER HT/PER/DIR (UTC) (F) (DEG/KT/KT) (MB) (FT/S) (FT/S/D) 5E ST. MARYS GA 2130 66 N/A 4/ 8 FRYING PAN BUOY 2150 71 76 130/ 10/ 12 1022.0S 3/ 7 3/170/ 7 BUOY 41025 2150 70 76 160/ 8/ 10 1023.3R 4/10 3/130/10 CAPE LOOKOUT NC 2200 67 140/ 9/ 9 1022.6F BUOY 41002 2150 68 72 70/ 16/ 17 1022.7R 5/ 9 5/140/ 9 BUOY 41010 NOT AVBL ST AUGUSTINE FL 2200 69 71 90/ 9/ 10 1020.5F $$

USA.gov is the U.S. government's official web portal to all federal, state and local government web resources and services.